Location: Marcé
(47.5801°N, 0.3280°W)
Time: 00:24:02
(UTC+02:00)

ZHUHAI-1 OHS-01 - Pass Details

Date: 05 July 2022
Orbit: 491 x 508 km, 97.2° (Epoch: 10 August)

Event Time Altitude Azimuth Distance (km) Brightness Sun altitude
Exits shadow 23:54:24 - 211° (SSW) 2,235 ? -13.7°
Reaches altitude 10° 23:56:07 10° 227° (SW) 1,699 ? -13.9°
Maximum altitude 23:58:32 17° 269° (W) 1,342 ? -14.1°
Drops below altitude 10° 00:00:58 10° 310° (NW) 1,716 ? -14.3°
Sets 00:03:41 0° 332° (NNW) 2,611 ? -14.5°
